When you browse on this site, cookies collect data to enhance your experience and personalize the content and advertising you see.
Visit our Privacy Policy to learn more. By continuing to use the site, you agree to this use of cookies and data.
  • en Belgique
  • Liste des pays
  • À 7 jours
  • Température de l'eau
  • Carte météo
  • Widgets météo
  • user-avatar
    Se connecter

    Météo par heure à Gomel

    Ce jour, 7 Juin, Dimanche

    Heure Température Précipitation Vent Pression Humidité
    00:00 +17°C° 0 mm 0 m/s 748 mmHg 91%
    01:00 +16°C° 0 mm 0 m/s 748 mmHg 91%
    02:00 +18°C° 0 mm 1 m/s 749 mmHg 91%
    03:00 +18°C° 0 mm 1 m/s 749 mmHg 91%
    04:00 +19°C° 0 mm 1 m/s 749 mmHg 91%
    05:00 +19°C° 0 mm 1 m/s 749 mmHg 92%
    06:00 +19°C° 0 mm 2 m/s 749 mmHg 89%
    07:00 +21°C° 0 mm 2 m/s 749 mmHg 86%
    08:00 +23°C° 0 mm 2 m/s 750 mmHg 84%
    09:00 +24°C° 0.9 mm 2 m/s 749 mmHg 80%
    10:00 +26°C° 0.9 mm 2 m/s 749 mmHg 75%
    11:00 +27°C° 0.9 mm 2 m/s 749 mmHg 71%
    12:00 +27°C° 0.7 mm 3 m/s 749 mmHg 68%
    13:00 +28°C° 0.7 mm 3 m/s 749 mmHg 64%
    14:00 +29°C° 0.7 mm 3 m/s 749 mmHg 61%
    15:00 +28°C° 0.4 mm 3 m/s 749 mmHg 64%
    16:00 +28°C° 0.4 mm 3 m/s 749 mmHg 67%
    17:00 +27°C° 0.4 mm 4 m/s 749 mmHg 70%
    18:00 +26°C° 0.1 mm 3 m/s 749 mmHg 75%
    19:00 +24°C° 0.1 mm 3 m/s 749 mmHg 80%
    20:00 +21°C° 0.1 mm 2 m/s 749 mmHg 85%
    21:00 +21°C° 0 mm 2 m/s 749 mmHg 88%
    22:00 +20°C° 0 mm 2 m/s 749 mmHg 90%
    23:00 +19°C° 0 mm 3 m/s 749 mmHg 93%

    Demain, 8 Juin, Lundi

    Heure Température Précipitation Vent Pression Humidité
    00:00 +19°C° 0 mm 3 m/s 750 mmHg 93%
    01:00 +18°C° 0 mm 2 m/s 750 mmHg 93%
    02:00 +18°C° 0 mm 2 m/s 750 mmHg 93%
    03:00 +18°C° 0 mm 2 m/s 749 mmHg 92%
    04:00 +18°C° 0 mm 3 m/s 749 mmHg 92%
    05:00 +18°C° 0 mm 3 m/s 749 mmHg 91%
    06:00 +19°C° 0 mm 3 m/s 749 mmHg 86%
    07:00 +21°C° 0 mm 3 m/s 749 mmHg 81%
    08:00 +22°C° 0 mm 3 m/s 750 mmHg 75%
    09:00 +25°C° 0 mm 3 m/s 750 mmHg 70%
    10:00 +26°C° 0 mm 3 m/s 750 mmHg 65%
    11:00 +28°C° 0 mm 3 m/s 750 mmHg 60%
    12:00 +28°C° 0 mm 4 m/s 749 mmHg 59%
    13:00 +28°C° 0 mm 4 m/s 749 mmHg 58%
    14:00 +29°C° 0 mm 4 m/s 749 mmHg 57%
    15:00 +29°C° 0 mm 4 m/s 749 mmHg 60%
    16:00 +28°C° 0 mm 3 m/s 749 mmHg 64%
    17:00 +28°C° 0 mm 3 m/s 748 mmHg 67%
    18:00 +26°C° 0 mm 3 m/s 748 mmHg 73%
    19:00 +25°C° 0 mm 3 m/s 748 mmHg 79%
    20:00 +23°C° 0 mm 2 m/s 748 mmHg 84%
    21:00 +21°C° 0 mm 2 m/s 748 mmHg 87%
    22:00 +20°C° 0 mm 2 m/s 749 mmHg 89%
    23:00 +19°C° 0 mm 2 m/s 749 mmHg 92%

    Après-demain, 9 Juin, Mardi

    Heure Température Précipitation Vent Pression Humidité
    00:00 +19°C° 0 mm 2 m/s 749 mmHg 92%
    01:00 +19°C° 0 mm 2 m/s 749 mmHg 92%
    02:00 +18°C° 0 mm 2 m/s 749 mmHg 92%
    03:00 +18°C° 0 mm 2 m/s 749 mmHg 92%
    04:00 +18°C° 0 mm 3 m/s 749 mmHg 92%
    05:00 +18°C° 0 mm 3 m/s 749 mmHg 91%
    06:00 +20°C° 0 mm 3 m/s 749 mmHg 87%
    07:00 +22°C° 0 mm 3 m/s 749 mmHg 82%
    08:00 +23°C° 0 mm 4 m/s 750 mmHg 77%
    09:00 +26°C° 0 mm 4 m/s 750 mmHg 71%
    10:00 +27°C° 0 mm 4 m/s 750 mmHg 65%
    11:00 +29°C° 0 mm 5 m/s 750 mmHg 58%
    12:00 +29°C° 0 mm 5 m/s 750 mmHg 58%
    13:00 +29°C° 0 mm 5 m/s 750 mmHg 57%
    14:00 +30°C° 0 mm 5 m/s 749 mmHg 56%
    15:00 +29°C° 0 mm 4 m/s 749 mmHg 59%
    16:00 +29°C° 0 mm 4 m/s 749 mmHg 62%
    17:00 +29°C° 0 mm 3 m/s 749 mmHg 66%
    18:00 +27°C° 0 mm 3 m/s 749 mmHg 71%
    19:00 +26°C° 0 mm 3 m/s 749 mmHg 77%
    20:00 +24°C° 0 mm 3 m/s 749 mmHg 83%
    21:00 +22°C° 0 mm 3 m/s 749 mmHg 85%
    22:00 +21°C° 0 mm 3 m/s 749 mmHg 88%
    23:00 +21°C° 0 mm 3 m/s 750 mmHg 90%

    10 Juin, Mercredi

    Heure Température Précipitation Vent Pression Humidité
    00:00 +20°C° 0 mm 3 m/s 750 mmHg 91%
    01:00 +20°C° 0 mm 3 m/s 749 mmHg 91%
    02:00 +20°C° 0 mm 3 m/s 749 mmHg 92%
    03:00 +20°C° 0 mm 3 m/s 749 mmHg 91%
    04:00 +20°C° 0 mm 3 m/s 749 mmHg 91%
    05:00 +20°C° 0 mm 3 m/s 749 mmHg 90%
    06:00 +21°C° 0 mm 4 m/s 749 mmHg 86%
    07:00 +23°C° 0 mm 4 m/s 750 mmHg 81%
    08:00 +25°C° 0 mm 4 m/s 750 mmHg 76%
    09:00 +27°C° 0 mm 4 m/s 750 mmHg 70%
    10:00 +28°C° 0 mm 4 m/s 749 mmHg 63%
    11:00 +29°C° 0 mm 5 m/s 749 mmHg 57%
    12:00 +30°C° 0 mm 5 m/s 749 mmHg 56%
    13:00 +30°C° 0 mm 5 m/s 749 mmHg 55%
    14:00 +32°C° 0 mm 5 m/s 749 mmHg 54%
    15:00 +30°C° 0 mm 5 m/s 749 mmHg 58%
    16:00 +30°C° 0 mm 4 m/s 748 mmHg 62%
    17:00 +30°C° 0 mm 4 m/s 748 mmHg 66%
    18:00 +28°C° 0 mm 3 m/s 748 mmHg 71%
    19:00 +26°C° 0 mm 3 m/s 748 mmHg 77%
    20:00 +25°C° 0 mm 3 m/s 749 mmHg 83%
    21:00 +24°C° 0 mm 3 m/s 749 mmHg 85%
    22:00 +22°C° 0 mm 3 m/s 749 mmHg 87%
    23:00 +21°C° 0 mm 3 m/s 749 mmHg 89%

    11 Juin, Jeudi

    Heure Température Précipitation Vent Pression Humidité
    00:00 +21°C° 0 mm 3 m/s 749 mmHg 90%
    01:00 +20°C° 0 mm 3 m/s 749 mmHg 91%
    02:00 +20°C° 0 mm 3 m/s 749 mmHg 92%
    03:00 +20°C° 0 mm 3 m/s 748 mmHg 92%
    04:00 +20°C° 0 mm 3 m/s 748 mmHg 92%
    05:00 +20°C° 0 mm 3 m/s 748 mmHg 91%
    06:00 +22°C° 0 mm 3 m/s 749 mmHg 86%
    07:00 +24°C° 0 mm 3 m/s 749 mmHg 81%
    08:00 +26°C° 0 mm 4 m/s 749 mmHg 76%
    09:00 +27°C° 0.6 mm 4 m/s 749 mmHg 70%
    10:00 +29°C° 0.6 mm 4 m/s 749 mmHg 65%
    11:00 +30°C° 0.6 mm 5 m/s 749 mmHg 59%
    12:00 +30°C° 0 mm 4 m/s 748 mmHg 57%
    13:00 +32°C° 0 mm 4 m/s 748 mmHg 56%
    14:00 +32°C° 0 mm 4 m/s 748 mmHg 55%
    15:00 +32°C° 0.1 mm 4 m/s 748 mmHg 58%
    16:00 +30°C° 0.1 mm 4 m/s 747 mmHg 62%
    17:00 +30°C° 0.1 mm 3 m/s 747 mmHg 66%
    18:00 +28°C° 0.1 mm 3 m/s 747 mmHg 72%
    19:00 +26°C° 0.1 mm 3 m/s 747 mmHg 78%
    20:00 +25°C° 0.1 mm 3 m/s 747 mmHg 84%
    21:00 +24°C° 0 mm 3 m/s 747 mmHg 87%
    22:00 +22°C° 0 mm 3 m/s 747 mmHg 90%
    23:00 +21°C° 0 mm 3 m/s 747 mmHg 92%

    12 Juin, Vendredi

    Heure Température Précipitation Vent Pression Humidité
    00:00 +21°C° 0 mm 3 m/s 747 mmHg 93%
    01:00 +20°C° 0 mm 3 m/s 747 mmHg 93%
    02:00 +19°C° 0 mm 3 m/s 747 mmHg 93%
    03:00 +19°C° 0 mm 3 m/s 747 mmHg 93%
    04:00 +20°C° 0 mm 3 m/s 747 mmHg 93%
    05:00 +20°C° 0 mm 3 m/s 747 mmHg 93%
    06:00 +21°C° 0 mm 3 m/s 747 mmHg 87%
    07:00 +24°C° 0 mm 3 m/s 747 mmHg 81%
    08:00 +25°C° 0 mm 3 m/s 747 mmHg 76%
    09:00 +27°C° 0 mm 4 m/s 747 mmHg 70%
    10:00 +28°C° 0 mm 4 m/s 747 mmHg 65%
    11:00 +30°C° 0 mm 4 m/s 747 mmHg 59%
    12:00 +30°C° 0 mm 4 m/s 747 mmHg 56%
    13:00 +32°C° 0 mm 4 m/s 746 mmHg 53%
    14:00 +33°C° 0 mm 4 m/s 746 mmHg 49%
    15:00 +33°C° 0 mm 4 m/s 746 mmHg 53%
    16:00 +31°C° 0 mm 3 m/s 746 mmHg 56%
    17:00 +31°C° 0 mm 3 m/s 746 mmHg 59%
    18:00 +29°C° 0 mm 2 m/s 746 mmHg 64%
    19:00 +27°C° 0 mm 2 m/s 746 mmHg 69%
    20:00 +25°C° 0 mm 2 m/s 746 mmHg 74%
    21:00 +24°C° 0 mm 2 m/s 746 mmHg 77%
    22:00 +23°C° 0 mm 2 m/s 746 mmHg 80%
    23:00 +21°C° 0 mm 2 m/s 747 mmHg 84%
    Voir plus